Location: Edmonton
(53.5500°N, 113.5000°W)
Time: 21:38:28
(UTC-06:00)

OTV 5 (USA 277) - Visible Passes

Search period start: 25 April 2019 00:00
Search period end: 05 May 2019 00:00
Orbit: 309 x 326 km, 54.5° (Epoch: 21 April)

Date Brightness Start Highest point End Pass type
(mag) Time Alt. Az. Time Alt. Az. Time Alt. Az.
25 Apr ? 22:59:36 10° WSW 23:02:19 75° SSE 23:02:57 47° E visible
26 Apr ? 21:40:21 10° SW 21:42:51 33° SSE 21:45:22 10° E visible
26 Apr ? 23:14:20 10° W 23:17:03 79° N 23:17:42 47° ENE visible
27 Apr ? 21:54:47 10° WSW 21:57:30 59° SSE 22:00:11 10° ENE visible
27 Apr ? 23:29:07 10° W 23:31:50 68° N 23:32:09 59° NE visible
28 Apr ? 22:09:28 10° WSW 22:12:12 89° W 22:14:55 10° ENE visible
28 Apr ? 23:43:53 10° W 23:46:26 68° NNW 23:46:26 68° NNW visible
29 Apr ? 22:24:14 10° W 22:26:57 71° N 22:29:40 10° E visible
29 Apr ? 23:58:38 10° WNW 00:00:36 42° WNW 00:00:36 42° WNW visible
30 Apr ? 22:39:00 10° W 22:41:44 69° N 22:43:49 15° E visible
01 May ? 00:13:24 10° WNW 00:14:41 24° W 00:14:41 24° W visible
01 May ? 22:53:45 10° WNW 22:56:30 81° N 22:57:52 26° E visible
02 May ? 00:28:13 10° W 00:28:45 14° W 00:28:45 14° W visible
02 May ? 23:08:30 10° WNW 23:11:13 71° SSW 23:11:54 44° SE visible
03 May ? 21:48:52 10° W 21:51:37 73° N 21:54:19 10° E visible
03 May ? 23:23:17 10° W 23:25:52 41° SSW 23:25:55 41° SSW visible
04 May ? 22:03:36 10° WNW 22:06:21 87° SSW 22:09:04 10° ESE visible
04 May ? 23:38:11 10° W 23:39:57 22° SW 23:39:57 22° SW visible
